Back to catalog

STARLINK-37321

AliveCommunicationsVLEO
NORAD 69198·PAYLOAD·🇺🇸 United States

Launched May 26, 2026 from Vandenberg Space Force Base

Loading…

Next Passes (next 24 hours)

TLE

FreshSource: CelesTrak SupGP

Epoch: Sep 14, 2026, 14:45 UTC

1 69198C 26114S   26257.61506944  .00059603  00000+0  17608-2 0  2577
2 69198  53.1571 141.1930 0001268  98.8380 242.5485 15.34364245    17

Track STARLINK-37321 in real time with AllMySat

Download on the App Store